[[{"header":{"parameterUnit":"m.s-1","parameterCategory":2,"la1":30.2992,"la2":30.254,"lo1":-89.0895,"lo2":-89.0443,"dy":0.0025,"dx":0.0025,"nx":19,"ny":19,"refTime":"2026-05-03T03:00:00:Z","depth":"0","parameterNumber":2,"parameterNumberName":"U-component_of_CURRENTS"},"data":[0,0,0,0.1246,0.1247,0.13,0.13,0.1471,0.1472,0,0,0,0,0,0,0,0,0,0,0,0.1231,0.1231,0.1246,0.1247,0.13,0.13,0.147,0.1472,0,0,0,0,0,0,0,0,0,0,0,0.1231,0.1231,0.1231,0.1247,0.13,0.13,0.147,0.1408,0,0,0,0,0,0,0,0,0,0,0.1346,0.1315,0.1231,0.1231,0.1247,0.1299,0.13,0.1404,0.1412,0.1471,0,0.1469,0,0.1469,0.1485,0.1485,0,0,0,0.1263,0.1308,0.1316,0.1231,0.1247,0.1299,0.128,0.1408,0.1417,0.1482,0.1471,0.1477,0.1472,0.1486,0.1487,0.167,0.167,0,0,0.126,0.1255,0.1309,0.1321,0.1251,0.1278,0.1282,0.1412,0.1425,0.1472,0.148,0.1475,0.1487,0.1488,0.1669,0.167,0,0,0,0.1241,0.1253,0.1255,0.1315,0.1313,0.128,0.1283,0.1419,0.1417,0.1482,0.1477,0.1488,0.149,0.1669,0.167,0.1693,0,0,0,0.124,0.124,0.1253,0.1253,0.1309,0.1353,0.1287,0.1408,0.1422,0.1476,0.1488,0.1492,0.1668,0.1669,0.1691,0.17,0,0,0,0.123,0.124,0.124,0.1252,0.1267,0.135,0.1357,0.1411,0.1419,0.1485,0.1493,0.1667,0.1669,0.1689,0.1697,0.1751,0,0,0,0.1232,0.1239,0.124,0.1258,0.1266,0.1329,0.1356,0.1415,0.147,0.1489,0.1668,0.1669,0.1688,0.1695,0.1748,0.1688,0.1694,0,0,0.1241,0.124,0.1252,0.1254,0.1304,0.1323,0.1414,0.1488,0.1517,0.1634,0.1637,0.1691,0.1697,0.175,0.1774,0.1777,0,0,0,0.1256,0.1263,0.1281,0.1309,0.1351,0.1426,0.1484,0.1528,0.1624,0.1552,0.1716,0.1719,0.1751,0.1711,0.1714,0.155,0.1676,0.1676,0.1676,0.1271,0.129,0.133,0.1369,0.1421,0.151,0.158,0.1657,0.1672,0.1716,0.1756,0.1836,0.1793,0.1794,0.1627,0.1777,0.1777,0.1777,0.1777,0.1297,0.1321,0.1371,0.1412,0.1495,0.1578,0.1703,0.1729,0.1837,0.1814,0.1845,0.1759,0.1799,0.1619,0.1779,0.1779,0.1778,0.1778,0.1778,0.1303,0.132,0.1346,0.1428,0.153,0.1627,0.1753,0.182,0.1864,0.1902,0.1868,0.1866,0.1693,0.1916,0.1917,0.1917,0.1917,0.1917,0.1918,0.1298,0.1328,0.1375,0.1454,0.1524,0.1638,0.1784,0.1856,0.1903,0.1898,0.1898,0.1698,0.1879,0.1856,0.1922,0.1921,0.1921,0.192,0.192,0.1307,0.1319,0.139,0.1451,0.1594,0.1668,0.1802,0.188,0.1942,0.1941,0.1699,0.1908,0.1899,0.1895,0.1874,0.1941,0.1941,0.1941,0.1941,0.1316,0.1325,0.1423,0.1514,0.1621,0.1695,0.1739,0.1777,0.1713,0.1615,0.1615,0.1529,0.1536,0.1501,0.1506,0.1475,0.1439,0.1438,0.1438,0.1342,0.1372,0.1439,0.1516,0.1631,0.1688,0.1652,0.1535,0.1407,0.1402,0.14,0.1422,0.128,0.1304,0.1236,0.1256,0.1202,0,0]},{"header":{"parameterUnit":"m.s-1","parameterCategory":2,"la1":30.2992,"la2":30.254,"lo1":-89.0895,"lo2":-89.0443,"dy":0.0025,"dx":0.0025,"nx":19,"ny":19,"refTime":"2026-05-03T03:00:00:Z","depth":"0","parameterNumber":3,"parameterNumberName":"V-component_of_CURRENTS"},"data":[0,0,0,0.0172,0.0173,0.0218,0.0219,0.0252,0.0252,0,0,0,0,0,0,0,0,0,0,0,0.0155,0.0155,0.0172,0.0173,0.0218,0.0219,0.0252,0.0252,0,0,0,0,0,0,0,0,0,0,0,0.0155,0.0155,0.0155,0.0174,0.0218,0.0219,0.0252,0.0224,0,0,0,0,0,0,0,0,0,0,0.0183,0.017,0.0155,0.0155,0.0174,0.0218,0.0219,0.0223,0.0226,0.0224,0,0.0231,0,0.0242,0.0254,0.0254,0,0,0,0.0174,0.0167,0.018,0.0155,0.0174,0.0218,0.0198,0.0225,0.0228,0.0228,0.0231,0.0233,0.0243,0.0254,0.0254,0.0271,0.0271,0,0,0.0172,0.0162,0.0178,0.0182,0.0185,0.0197,0.02,0.0227,0.0229,0.0231,0.0234,0.0243,0.0254,0.0254,0.0271,0.0271,0,0,0,0.0164,0.016,0.0173,0.0181,0.0191,0.0198,0.0201,0.0227,0.0232,0.0234,0.0244,0.0254,0.0254,0.0271,0.0271,0.0291,0,0,0,0.0163,0.0156,0.0172,0.0167,0.019,0.0213,0.0201,0.023,0.0234,0.0244,0.0254,0.0255,0.0271,0.0271,0.0291,0.0309,0,0,0,0.0153,0.0155,0.016,0.0166,0.0186,0.0213,0.0219,0.0231,0.0239,0.0254,0.0255,0.0271,0.0271,0.029,0.0307,0.0354,0,0,0,0.0142,0.0154,0.016,0.018,0.0185,0.0218,0.0219,0.0243,0.0256,0.0254,0.0271,0.0271,0.029,0.0306,0.0353,0.0434,0.0447,0,0,0.0153,0.0155,0.0169,0.0175,0.0209,0.0212,0.024,0.0255,0.0254,0.0261,0.0261,0.0291,0.0307,0.0354,0.0435,0.0449,0,0,0,0.017,0.018,0.0191,0.0213,0.0233,0.0251,0.0262,0.0266,0.0278,0.0262,0.0286,0.0295,0.0324,0.037,0.038,0.0384,0.0271,0.0271,0.0271,0.0171,0.019,0.0216,0.0239,0.0256,0.0276,0.0293,0.0298,0.0289,0.0294,0.0308,0.0351,0.0398,0.0408,0.0409,0.0298,0.0298,0.0298,0.0298,0.0197,0.0217,0.0234,0.0265,0.028,0.0299,0.0319,0.032,0.0352,0.0324,0.0351,0.0383,0.0421,0.0418,0.0299,0.0299,0.0299,0.0299,0.0299,0.0205,0.0217,0.0236,0.0276,0.0302,0.0317,0.0375,0.0372,0.0377,0.04,0.0468,0.0468,0.0473,0.0418,0.0419,0.0419,0.0419,0.0419,0.0419,0.0206,0.0226,0.0259,0.0292,0.0322,0.0365,0.0413,0.0458,0.0504,0.0507,0.0508,0.0493,0.0388,0.0391,0.0424,0.0423,0.0422,0.0422,0.0422,0.0227,0.0234,0.0284,0.0319,0.0397,0.049,0.0523,0.0635,0.0658,0.0698,0.0647,0.0573,0.0583,0.0575,0.0583,0.0663,0.0663,0.0663,0.0663,0.0238,0.0246,0.0322,0.0388,0.0471,0.0553,0.0741,0.0828,0.0819,0.0808,0.0745,0.0724,0.0714,0.0729,0.0717,0.0726,0.0841,0.0841,0.0841,0.0258,0.0278,0.0339,0.0407,0.0508,0.0649,0.086,0.0999,0.0938,0.0844,0.0733,0.0726,0.0685,0.0669,0.0681,0.0665,0.0675,0,0]}],[{"header":{"parameterUnit":"m.s-1","parameterCategory":2,"la1":30.2992,"la2":30.254,"lo1":-89.0895,"lo2":-89.0443,"dy":0.0025,"dx":0.0025,"nx":19,"ny":19,"refTime":"2026-05-03T03:00:00:Z","depth":"2","parameterNumber":2,"parameterNumberName":"U-component_of_CURRENTS"},"data":[0,0,0,0.1069,0.1069,0.11,0.1101,0.1203,0.1204,0,0,0,0,0,0,0,0,0,0,0,0.1061,0.1061,0.1069,0.1069,0.11,0.1101,0.1203,0.1204,0,0,0,0,0,0,0,0,0,0,0,0.1061,0.1061,0.1061,0.1069,0.11,0.1101,0.1203,0.1166,0,0,0,0,0,0,0,0,0,0,0.1129,0.1112,0.1061,0.1061,0.1069,0.11,0.1101,0.1164,0.1169,0.1204,0,0.1203,0,0.1202,0.1212,0.1212,0,0,0,0.1079,0.1108,0.1111,0.1061,0.107,0.11,0.1089,0.1166,0.1171,0.1211,0.1204,0.1208,0.1204,0.1212,0.1213,0.1305,0.1305,0,0,0.1078,0.1076,0.1107,0.1114,0.1072,0.1088,0.109,0.1169,0.1177,0.1205,0.121,0.1206,0.1213,0.1214,0.1305,0.1305,0,0,0,0.1066,0.1075,0.1075,0.1111,0.1109,0.1089,0.1091,0.1173,0.1171,0.1211,0.1207,0.1214,0.1215,0.1305,0.1305,0.1327,0,0,0,0.1065,0.1067,0.1074,0.1075,0.1107,0.1134,0.1094,0.1166,0.1175,0.1206,0.1214,0.1216,0.1304,0.1305,0.1326,0.1331,0,0,0,0.1061,0.1067,0.1067,0.1074,0.1082,0.1132,0.1135,0.1168,0.1172,0.1212,0.1216,0.1304,0.1305,0.1325,0.1329,0.1364,0,0,0,0.1063,0.1066,0.1067,0.1076,0.1082,0.1112,0.1134,0.1174,0.1208,0.1214,0.1304,0.1305,0.1325,0.1328,0.1362,0.1256,0.1253,0,0,0.1067,0.1066,0.1072,0.1074,0.11,0.1109,0.1151,0.1207,0.1226,0.1285,0.1286,0.1326,0.1329,0.1363,0.1281,0.1278,0,0,0,0.1074,0.1077,0.1088,0.1102,0.1123,0.1159,0.1196,0.1222,0.1282,0.1245,0.1329,0.133,0.1351,0.1284,0.1282,0.1307,0.1307,0.1307,0.1307,0.1082,0.109,0.1109,0.1127,0.1154,0.1201,0.1239,0.1282,0.1299,0.1329,0.135,0.1393,0.1321,0.1318,0.1355,0.1355,0.1355,0.1355,0.1355,0.109,0.1097,0.1123,0.1145,0.1186,0.1227,0.1295,0.1319,0.1385,0.1377,0.1397,0.1312,0.1316,0.1357,0.1357,0.1357,0.1356,0.1356,0.1356,0.1088,0.1093,0.1109,0.1149,0.1199,0.1252,0.1314,0.1364,0.1405,0.143,0.1368,0.1366,0.1411,0.1447,0.1447,0.1447,0.1448,0.1448,0.1448,0.1078,0.1092,0.1116,0.116,0.1191,0.1249,0.1336,0.1374,0.1388,0.1381,0.138,0.1424,0.1421,0.1416,0.1451,0.145,0.145,0.145,0.1449,0.1072,0.1082,0.1112,0.114,0.1194,0.1194,0.1297,0.1311,0.1358,0.1332,0.1356,0.1357,0.1342,0.1342,0.1336,0.1348,0.1348,0.1348,0.1348,0.1067,0.1075,0.1104,0.1129,0.1157,0.1165,0.113,0.1121,0.1166,0.1157,0.1165,0.1104,0.1112,0.1082,0.1088,0.1075,0.102,0.1019,0.1018,0.107,0.1082,0.1093,0.1109,0.1127,0.1094,0.0993,0.0871,0.0869,0.1007,0.1119,0.1323,0.1254,0.1259,0.1228,0.1232,0.1217,0,0]},{"header":{"parameterUnit":"m.s-1","parameterCategory":2,"la1":30.2992,"la2":30.254,"lo1":-89.0895,"lo2":-89.0443,"dy":0.0025,"dx":0.0025,"nx":19,"ny":19,"refTime":"2026-05-03T03:00:00:Z","depth":"2","parameterNumber":3,"parameterNumberName":"V-component_of_CURRENTS"},"data":[0,0,0,0.0147,0.0148,0.02,0.02,0.026,0.026,0,0,0,0,0,0,0,0,0,0,0,0.0128,0.0128,0.0147,0.0149,0.02,0.02,0.026,0.026,0,0,0,0,0,0,0,0,0,0,0,0.0128,0.0128,0.0129,0.0149,0.02,0.02,0.026,0.0223,0,0,0,0,0,0,0,0,0,0,0.0174,0.0155,0.0128,0.0129,0.0149,0.02,0.02,0.0221,0.0225,0.0234,0,0.024,0,0.0251,0.0264,0.0264,0,0,0,0.0152,0.0152,0.0166,0.0129,0.0149,0.02,0.0178,0.0224,0.0228,0.0239,0.0241,0.0243,0.0252,0.0264,0.0264,0.0328,0.0328,0,0,0.0149,0.0138,0.0163,0.0169,0.0161,0.0176,0.0179,0.0226,0.0229,0.0241,0.0245,0.0253,0.0264,0.0265,0.0327,0.0328,0,0,0,0.0138,0.0136,0.015,0.0166,0.0176,0.0177,0.0181,0.0227,0.0232,0.0245,0.0254,0.0265,0.0265,0.0327,0.0328,0.0347,0,0,0,0.0137,0.013,0.0148,0.0143,0.0175,0.0203,0.0181,0.0229,0.0235,0.0253,0.0265,0.0266,0.0327,0.0327,0.0346,0.037,0,0,0,0.0126,0.0129,0.0134,0.0142,0.0163,0.0203,0.021,0.023,0.024,0.0264,0.0266,0.0327,0.0327,0.0345,0.0368,0.0399,0,0,0,0.0114,0.0128,0.0134,0.0156,0.0163,0.0208,0.021,0.0242,0.0263,0.0265,0.0327,0.0328,0.0345,0.0366,0.0398,0.0447,0.0458,0,0,0.0126,0.0129,0.0144,0.0151,0.0195,0.0201,0.025,0.0273,0.0277,0.0311,0.0312,0.0346,0.0368,0.0399,0.0487,0.0498,0,0,0,0.0145,0.0157,0.0171,0.0198,0.0227,0.0263,0.0283,0.0297,0.0328,0.0293,0.0355,0.0369,0.0388,0.0414,0.0422,0.0331,0.0331,0.0331,0.0331,0.0147,0.0171,0.0205,0.0239,0.0267,0.0308,0.0339,0.0363,0.0353,0.0369,0.039,0.0438,0.0466,0.0473,0.0389,0.0389,0.0389,0.0389,0.0389,0.0177,0.0203,0.0234,0.0274,0.0311,0.035,0.0399,0.0403,0.0451,0.0426,0.0442,0.0441,0.0484,0.0391,0.0391,0.0391,0.039,0.039,0.039,0.0185,0.0203,0.0227,0.0287,0.0341,0.0381,0.0463,0.0476,0.0478,0.0502,0.053,0.053,0.0457,0.0504,0.0504,0.0504,0.0504,0.0504,0.0505,0.0185,0.0212,0.0254,0.0309,0.0357,0.0428,0.0505,0.0552,0.0581,0.0574,0.0574,0.0477,0.0473,0.0464,0.0508,0.0508,0.0507,0.0507,0.0507,0.0208,0.0216,0.0281,0.033,0.045,0.056,0.061,0.07,0.0717,0.0736,0.0619,0.0615,0.0619,0.0612,0.0607,0.0686,0.0686,0.0686,0.0686,0.022,0.0229,0.0325,0.0417,0.0534,0.0633,0.0782,0.0809,0.0776,0.0728,0.0726,0.0699,0.0692,0.0697,0.0688,0.0683,0.0782,0.0782,0.0782,0.0245,0.0271,0.0346,0.0438,0.0581,0.0729,0.086,0.085,0.0767,0.0782,0.0704,0.07,0.0654,0.0645,0.0645,0.0634,0.0623,0,0]}],[{"header":{"parameterUnit":"m.s-1","parameterCategory":2,"la1":30.2992,"la2":30.254,"lo1":-89.0895,"lo2":-89.0443,"dy":0.0025,"dx":0.0025,"nx":19,"ny":19,"refTime":"2026-05-03T03:00:00:Z","depth":"4","parameterNumber":2,"parameterNumberName":"U-component_of_CURRENTS"},"data":[0,0,0,0.0753,0.0753,0.0754,0.0754,0.0725,0.0725,0,0,0,0,0,0,0,0,0,0,0,0.0753,0.0754,0.0753,0.0753,0.0754,0.0754,0.0725,0.0725,0,0,0,0,0,0,0,0,0,0,0,0.0753,0.0754,0.0754,0.0753,0.0754,0.0754,0.0725,0.0729,0,0,0,0,0,0,0,0,0,0,0.0731,0.0742,0.0754,0.0754,0.0753,0.0754,0.0754,0.0729,0.0729,0.072,0,0.073,0,0.0731,0.0723,0.0723,0,0,0,0.0742,0.0743,0.0743,0.0754,0.0753,0.0754,0.075,0.0729,0.0728,0.0719,0.073,0.0729,0.0731,0.0723,0.0723,0.0704,0.0704,0,0,0.0742,0.0749,0.0744,0.0743,0.0767,0.075,0.075,0.0729,0.0733,0.073,0.0729,0.073,0.0723,0.0723,0.0704,0.0704,0,0,0,0.0749,0.0749,0.0751,0.0744,0.0749,0.0751,0.0751,0.0734,0.0735,0.0728,0.073,0.0723,0.0722,0.0704,0.0704,0.0729,0,0,0,0.0749,0.0755,0.0751,0.0755,0.075,0.0746,0.0756,0.0736,0.0734,0.073,0.0723,0.0722,0.0704,0.0704,0.0729,0.0735,0,0,0,0.0751,0.0755,0.0759,0.0756,0.0761,0.0747,0.0746,0.0736,0.0735,0.0723,0.0722,0.0704,0.0704,0.0728,0.0734,0.0746,0,0,0,0.0752,0.0754,0.076,0.0759,0.0761,0.0737,0.0746,0.0732,0.0721,0.0723,0.0704,0.0704,0.0728,0.0734,0.0745,0.0639,0,0,0,0.075,0.0754,0.075,0.0755,0.0729,0.0735,0.0715,0.0714,0.0718,0.0707,0.0707,0.0729,0.0734,0.0746,0.0635,0,0,0,0,0.0745,0.0742,0.0735,0.0726,0.0712,0.0704,0.07,0.071,0.0723,0.0714,0.072,0.0722,0.0729,0.0664,0.0704,0.0704,0.0704,0.0704,0.0704,0.0738,0.0727,0.0706,0.0691,0.0681,0.068,0.0687,0.07,0.0707,0.0725,0.0737,0.0753,0.0685,0.0732,0.0732,0.0732,0.0732,0.0732,0.0732,0.0709,0.0689,0.0681,0.0662,0.0658,0.0652,0.0676,0.0702,0.0742,0.0745,0.0751,0.0687,0.0734,0.0734,0.0734,0.0733,0.0733,0.0733,0.0733,0.069,0.0675,0.0675,0.0643,0.0641,0.065,0.067,0.0721,0.0756,0.0778,0.0714,0.0767,0.0772,0.0792,0.0792,0.0792,0.0792,0.0792,0.0792,0.0667,0.0659,0.0638,0.0623,0.0613,0.0628,0.0684,0.0704,0.0753,0.0724,0.0793,0.0773,0.0771,0.0775,0.0794,0.0793,0.0793,0.0793,0.0793,0.0624,0.0635,0.0591,0.0577,0.055,0.0553,0.063,0.0651,0.0671,0.0658,0.0688,0.0693,0.0673,0.0674,0.0674,0.0663,0.0661,0.066,0,0.0596,0.0597,0.0533,0.0491,0.0456,0.0495,0.0492,0.053,0.0578,0.0561,0.0657,0.0689,0.0692,0.0668,0.0666,0.0664,0,0,0,0.0555,0.0539,0.048,0.0443,0.0397,0.0417,0.0482,0.0474,0.0584,0.0562,0.0627,0.0636,0.0708,0.0797,0.0779,0.0776,0.0782,0,0]},{"header":{"parameterUnit":"m.s-1","parameterCategory":2,"la1":30.2992,"la2":30.254,"lo1":-89.0895,"lo2":-89.0443,"dy":0.0025,"dx":0.0025,"nx":19,"ny":19,"refTime":"2026-05-03T03:00:00:Z","depth":"4","parameterNumber":3,"parameterNumberName":"V-component_of_CURRENTS"},"data":[0,0,0,0.0157,0.0158,0.0226,0.0227,0.0339,0.034,0,0,0,0,0,0,0,0,0,0,0,0.0135,0.0136,0.0157,0.0158,0.0226,0.0227,0.0338,0.034,0,0,0,0,0,0,0,0,0,0,0,0.0135,0.0135,0.0136,0.0159,0.0226,0.0227,0.0338,0.0283,0,0,0,0,0,0,0,0,0,0,0.0215,0.0187,0.0135,0.0136,0.0159,0.0226,0.0227,0.028,0.0287,0.0312,0,0.0318,0,0.0327,0.0347,0.0347,0,0,0,0.0168,0.0182,0.0199,0.0136,0.0159,0.0226,0.0198,0.0284,0.0291,0.032,0.0319,0.0323,0.0329,0.0347,0.0348,0.0467,0.0467,0,0,0.0165,0.0152,0.0194,0.0203,0.0172,0.0196,0.02,0.0288,0.0294,0.032,0.0326,0.0331,0.0348,0.0349,0.0466,0.0467,0,0,0,0.0147,0.015,0.0164,0.0198,0.0207,0.0198,0.0203,0.0291,0.0295,0.0327,0.0332,0.0349,0.035,0.0466,0.0467,0.0487,0,0,0,0.0145,0.0139,0.0162,0.0157,0.0205,0.0246,0.0204,0.0289,0.0299,0.0332,0.0349,0.0351,0.0465,0.0466,0.0485,0.0501,0,0,0,0.0133,0.0138,0.0143,0.0156,0.018,0.0244,0.0254,0.0291,0.0302,0.0347,0.0351,0.0465,0.0466,0.0484,0.0498,0.0516,0,0,0,0.0122,0.0136,0.0143,0.0168,0.0179,0.0242,0.0254,0.0306,0.0346,0.0349,0.0465,0.0466,0.0483,0.0496,0.0515,0.0464,0,0,0,0.0134,0.0137,0.0154,0.0162,0.022,0.0233,0.0307,0.0358,0.0373,0.0439,0.0442,0.0486,0.0498,0.0516,0.0535,0,0,0,0,0.0155,0.0168,0.0187,0.0223,0.0264,0.0321,0.0363,0.0388,0.0449,0.04,0.0504,0.0512,0.0522,0.0489,0.0472,0.0472,0.0472,0.0472,0.0472,0.0159,0.0189,0.0234,0.0281,0.0324,0.039,0.0436,0.0481,0.0485,0.0515,0.0542,0.059,0.0557,0.0554,0.0554,0.0554,0.0554,0.0554,0.0554,0.0193,0.0225,0.0274,0.0327,0.0389,0.0453,0.0527,0.0538,0.0598,0.0586,0.0594,0.053,0.0557,0.0556,0.0556,0.0556,0.0555,0.0555,0.0555,0.0199,0.0222,0.0257,0.0344,0.043,0.05,0.0582,0.0616,0.0625,0.0644,0.0605,0.061,0.0593,0.0644,0.0644,0.0644,0.0644,0.0645,0.0645,0.0192,0.0231,0.0285,0.0371,0.0439,0.0528,0.0618,0.0646,0.0657,0.0636,0.0651,0.062,0.0617,0.0599,0.0647,0.0647,0.0646,0.0646,0.0646,0.0211,0.0223,0.0303,0.0367,0.0515,0.0576,0.0648,0.0661,0.0682,0.0657,0.0629,0.063,0.0618,0.0615,0.0596,0.0646,0.0645,0.0645,0,0.0218,0.0231,0.0339,0.0442,0.0551,0.0619,0.0648,0.0665,0.0646,0.0634,0.0681,0.0651,0.065,0.0637,0.0634,0.0612,0,0,0,0.0242,0.0271,0.0349,0.045,0.0578,0.0626,0.0659,0.0646,0.0647,0.0628,0.0633,0.0636,0.0648,0.0655,0.0637,0.0634,0.0604,0,0]}]]